Temp
53 54 54 55 56 56 56 57 57 57 57 57 58 58 59 59 60 60 61 61 61 61 61 61 61 61 60 58 58 58 57 57 57 57 57 57 57 56 56 55 55 54 54 54 54 54 54 54 53 53 52 52 51 50 49 48 50 51 51 51 51 52 53 54 54 54 54 54 55
53 53 54 55 55 56 56 56 56 56 56 57 57 57 57 58 59 60 60 60 61 61 61 61 60 59 58 58 57 57 57 57 57 57 57 56 56 55 54 54 53 53 53 52 52 52 52 51 51 51 52 52 51 50 49 48 48 49 49 49 49 50 51 52 52 52 52 52 52
54 54 54 54 54 55 56 56 55 55 55 55 56 56 56 57 58 58 59 59 59 60 60 61 60 59 58 58 58 58 58 58 58 57 57 56 54 54 53 52 52 51 51 51 50 50 50 50 50 51 52 52 51 50 49 47 48 49 49 49 48 49 49 49 48 48 48 48 48
54 54 55 54 54 54 55 56 55 55 55 56 55 55 56 57 57 57 57 57 58 59 60 60 59 58 58 57 58 58 57 58 57 56 55 54 53 52 51 51 50 50 50 50 49 49 49 49 49 49 49 48 48 48 48 48 48 48 48 48 47 47 47 46 45 45 45 45 45
54 54 55 54 54 54 55 54 54 55 55 56 57 57 58 57 57 57 57 57 58 58 58 58 59 58 57 57 57 56 56 55 55 54 53 52 52 52 51 51 51 50 49 49 49 48 48 48 49 49 49 49 49 49 48 48 48 47 47 47 46 46 45 45 44 44 44 44 44
54 54 54 54 54 54 55 55 54 54 55 56 56 56 56 57 58 57 57 58 57 57 57 58 58 58 57 56 55 55 54 53 53 52 51 51 51 51 50 50 50 50 50 50 49 49 49 49 50 50 50 49 49 49 48 47 47 46 46 45 45 45 44 44 43 43 43 43 43
53 54 54 54 54 54 54 54 54 54 55 55 54 54 54 55 55 55 55 56 56 57 57 57 56 56 55 55 54 53 52 52 51 51 50 50 50 50 50 50 50 50 50 49 49 50 50 49 50 50 50 49 49 48 47 46 46 45 44 44 44 43 43 42 41 41 41 40 41
53 53 53 53 53 53 53 53 54 54 54 55 53 52 52 53 53 54 54 55 55 55 56 56 54 54 53 53 53 52 51 50 50 49 49 49 49 49 49 50 50 50 50 49 49 49 48 48 49 49 48 48 48 47 46 45 43 42 42 42 42 41 40 40 40 40 41 41 40
53 53 53 53 53 53 53 53 53 53 53 52 52 52 52 52 52 52 53 54 54 54 54 54 53 52 52 51 51 51 50 50 49 49 49 48 48 48 49 49 50 50 50 49 48 47 47 48 48 48 47 47 47 46 45 43 41 41 41 42 42 41 40 40 40 41 41 41 40
52 52 52 53 52 52 52 52 52 52 51 51 51 51 51 52 51 51 52 53 53 52 52 52 51 51 50 50 50 50 50 50 50 50 49 49 49 48 48 49 50 50 50 49 48 47 46 46 47 47 46 46 46 45 43 42 41 41 41 42 41 41 41 40 41 41 41 40 39
51 51 52 52 51 51 52 51 51 51 51 50 50 50 50 50 50 50 51 51 51 50 50 50 49 49 49 49 50 51 51 51 51 51 50 50 50 49 49 49 49 49 49 49 48 47 46 46 46 45 45 45 45 44 44 43 42 42 42 42 41 41 41 40 40 40 39 38 38
50 50 51 51 51 51 51 50 50 50 49 49 49 49 49 49 48 49 49 49 49 49 49 49 48 48 48 49 51 52 51 51 51 50 49 49 48 48 48 47 47 47 48 47 46 45 45 44 44 44 44 43 44 44 44 44 43 42 41 41 41 40 40 40 39 38 37 36 37
50 50 50 50 50 49 49 49 49 48 48 47 48 48 48 48 48 48 48 48 48 48 49 48 48 47 48 49 50 50 50 50 49 48 47 46 46 46 46 46 46 45 45 45 45 44 44 44 43 43 43 43 43 43 43 42 42 41 41 40 40 39 39 39 39 38 37 36 36
49 48 48 48 48 48 48 47 47 47 46 46 46 47 47 47 48 48 48 48 49 49 49 48 48 48 48 49 48 48 48 48 48 47 46 46 45 45 44 44 44 43 43 44 44 44 43 43 43 43 43 42 42 42 41 41 40 40 39 39 39 39 39 39 38 37 37 36 37
47 47 47 47 47 47 47 46 46 46 45 45 45 46 46 47 48 48 48 48 49 49 48 48 48 49 49 49 48 48 47 47 46 45 45 45 44 44 44 43 43 42 42 42 42 42 42 43 42 42 42 42 41 41 40 40 40 39 39 38 38 39 39 38 37 36 36 36 37
46 46 46 46 45 45 45 45 45 45 44 44 45 46 46 47 48 48 48 48 48 48 48 48 48 47 47 48 47 47 46 46 45 44 44 44 43 43 43 43 42 42 42 41 41 41 42 42 42 41 41 40 40 39 39 39 39 39 38 38 38 38 38 38 37 37 36 37 37
44 44 44 44 44 44 43 43 44 44 44 44 45 46 46 47 47 47 48 48 47 47 46 46 47 47 47 47 47 46 45 45 44 44 43 42 42 42 42 42 42 42 42 41 41 41 41 41 41 41 40 39 39 38 38 38 38 38 38 38 38 38 38 38 38 37 37 37 38
43 43 43 43 43 42 42 42 43 43 43 44 45 46 46 46 46 47 47 47 46 46 45 45 46 46 46 45 45 45 44 43 43 43 42 42 42 42 41 41 42 42 42 41 41 40 40 40 40 39 39 39 38 38 38 38 38 38 38 38 38 38 38 38 38 38 38 38 38
41 42 42 42 42 42 43 43 44 44 44 44 45 45 46 46 46 46 46 46 46 46 45 45 45 45 45 45 44 44 44 42 41 41 42 42 42 41 41 41 41 41 41 40 40 39 39 38 38 38 38 38 39 39 38 38 38 38 38 38 38 38 38 38 38 38 38 38 38
40 41 41 42 42 43 44 45 45 45 45 45 45 45 45 45 45 44 44 44 45 45 45 44 44 44 44 43 43 43 42 42 41 40 40 40 40 40 40 41 41 40 40 39 39 39 39 38 38 38 39 39 39 39 39 39 38 38 38 38 38 38 37 37 37 38 38 38 38
40 41 43 45 44 44 45 45 45 45 44 44 44 44 44 44 44 43 43 43 44 44 43 43 43 43 42 42 41 41 41 42 41 41 40 40 40 40 40 40 40 39 39 39 39 39 39 39 39 39 39 39 39 39 39 38 38 37 37 37 37 36 36 36 37 37 37 37 37
41 43 45 45 45 45 45 45 45 44 43 43 43 43 43 43 43 43 43 43 42 41 41 41 42 42 42 42 41 41 42 42 42 41 41 41 41 40 40 39 39 38 38 38 38 38 39 39 39 39 39 39 39 38 38 37 36 36 36 36 36 36 36 36 36 36 36 37 37
43 44 45 45 45 45 45 45 44 43 43 42 43 43 43 43 43 43 43 42 42 41 41 41 42 42 42 42 42 41 41 41 41 41 41 40 40 40 39 38 38 38 38 38 38 38 38 39 39 39 39 38 37 37 36 36 35 35 35 35 35 35 35 35 35 36 36 36 37
44 45 45 45 45 45 44 44 43 43 43 43 43 43 43 43 42 42 42 42 42 42 42 42 42 42 42 42 41 41 41 41 40 40 40 40 40 40 39 38 37 38 39 40 40 39 39 39 39 38 38 37 36 36 35 35 34 34 34 34 34 34 34 34 34 35 35 35 36
44 44 44 44 44 44 43 42 42 43 43 43 43 43 42 42 42 42 42 42 42 42 42 42 42 42 42 41 41 40 40 40 40 40 40 40 40 40 41 41 40 40 41 42 43 42 42 40 39 37 36 36 35 35 34 34 34 34 34 34 34 34 33 33 33 33 34 34 34
44 44 44 44 44 43 43 42 42 42 42 43 42 42 42 42 41 41 41 41 41 42 42 42 42 42 42 41 41 40 40 40 40 40 40 40 40 41 41 41 41 41 42 44 44 44 43 42 41 38 36 34 34 34 34 33 33 33 33 34 33 33 33 32 32 32 32 32 32
43 43 43 43 43 42 42 42 42 42 42 42 41 41 41 42 41 40 40 40 41 41 41 41 42 42 42 41 40 40 40 41 40 40 40 40 40 41 41 41 41 41 42 44 45 44 44 43 42 40 37 34 33 33 33 32 32 32 32 32 32 32 32 32 32 32 31 31 31
42 42 42 42 42 42 42 42 42 41 41 41 41 41 41 41 40 40 40 40 41 41 41 41 41 42 41 40 40 40 40 41 41 41 41 40 40 40 40 40 40 42 43 45 45 44 44 43 42 41 38 35 33 32 32 31 31 31 31 31 31 31 31 31 31 30 30 30 31
41 41 41 42 41 41 41 41 41 41 41 41 41 41 41 41 40 40 40 40 40 40 40 41 41 41 41 40 40 40 40 40 41 40 40 39 39 40 40 39 40 41 44 45 44 44 43 43 42 41 39 37 33 31 31 30 30 30 30 30 30 30 30 29 29 28 29 29 29
40 40 40 40 41 40 40 41 41 41 41 41 41 41 41 41 41 41 41 40 40 40 40 40 40 40 39 39 40 40 39 39 39 38 37 38 39 39 39 39 39 41 43 45 44 43 43 42 41 40 39 37 34 31 29 29 29 30 30 29 29 28 28 28 28 28 28 28 28
39 39 39 39 40 40 40 41 41 41 41 41 41 41 41 41 40 40 40 40 40 40 40 39 38 38 38 38 38 38 38 38 38 38 38 39 39 39 39 38 39 41 43 44 43 43 42 41 40 39 38 37 33 30 28 28 28 28 28 27 27 27 27 27 27 27 27 27 27
39 39 39 39 39 39 40 40 41 41 41 41 41 40 40 40 40 40 39 39 39 38 38 37 37 37 37 37 37 37 37 37 38 38 38 38 38 39 39 39 40 41 42 43 43 42 41 41 40 39 38 37 33 30 27 28 27 27 27 26 26 27 27 27 27 27 27 27 27
39 39 39 38 38 39 39 40 40 40 40 40 39 39 39 39 39 39 39 39 38 37 37 36 36 36 36 36 36 36 36 36 37 38 38 38 38 38 38 39 39 41 42 42 42 41 41 40 39 38 37 36 32 29 26 27 27 26 26 26 26 26 26 26 26 26 26 27 27
39 38 38 38 38 38 39 39 39 39 39 38 38 38 38 38 38 38 38 38 38 37 37 36 36 36 36 36 36 36 36 37 37 37 37 37 37 37 38 38 39 40 42 42 41 41 40 40 39 38 37 36 31 28 26 26 25 25 25 24 24 25 25 25 25 25 25 25 25
38 38 38 38 38 38 38 38 38 38 38 37 37 37 38 38 38 38 38 38 38 37 36 36 36 35 35 35 35 35 35 35 35 36 36 36 36 36 37 37 38 40 41 41 41 40 40 39 39 38 37 34 28 25 24 24 24 23 23 23 24 24 24 24 24 24 24 24 24
38 38 38 38 38 38 37 37 37 37 37 37 37 37 37 37 37 37 37 37 37 36 35 35 35 35 34 34 34 34 35 34 34 34 34 34 33 33 34 35 36 38 41 41 41 40 40 39 39 38 35 30 26 24 23 23 22 22 22 22 23 23 23 23 23 24 24 23 24
37 37 37 37 37 37 37 37 37 36 36 36 36 36 36 36 36 36 36 35 34 34 35 34 34 34 33 33 33 32 32 31 31 31 30 31 29 28 29 30 30 34 39 41 41 40 40 40 39 37 34 27 23 22 22 22 21 21 21 21 21 21 22 22 23 23 23 24 26
37 37 37 37 37 37 37 36 36 36 35 35 35 35 35 35 35 35 35 34 33 33 34 33 33 33 33 32 31 29 28 27 27 27 27 27 27 26 26 26 26 31 36 41 41 41 40 40 40 37 33 26 23 21 21 21 20 20 21 20 20 21 21 21 21 22 23 25 32
37 37 36 36 36 36 36 36 35 35 35 35 35 35 35 35 35 35 34 33 32 32 33 33 33 33 33 33 31 29 27 26 27 27 26 25 27 28 28 25 25 28 34 41 41 41 41 41 40 39 35 28 23 21 21 21 20 20 20 20 20 21 21 20 20 20 21 24 34
35 35 35 35 35 35 35 35 34 34 34 34 34 34 34 35 35 35 35 34 32 31 31 32 32 32 33 34 32 30 28 27 26 26 27 27 28 31 31 25 23 26 31 39 42 42 42 42 41 40 36 27 22 21 21 20 20 20 20 20 20 21 21 20 20 19 20 21 28
34 34 34 34 34 34 34 34 34 34 34 34 34 34 35 36 35 35 34 34 32 32 32 32 32 31 31 32 32 30 29 28 27 27 27 29 29 30 30 26 24 24 27 35 41 42 42 42 42 40 36 27 22 20 21 21 21 21 21 20 20 20 20 20 20 20 19 19 20
MSLP
1014.61 1014.61 1014.61 1014.57 1014.57 1014.57 1014.53 1014.49 1014.49 1014.45 1014.41 1014.41 1014.41 1014.41 1014.45 1014.45 1014.45 1014.45 1014.45 1014.41 1014.41 1014.41 1014.41 1014.41 1014.41 1014.41 1014.53 1014.77 1014.97 1014.97 1014.89 1014.77 1014.81 1014.81 1014.81 1014.85 1014.97 1015.05 1015.13 1015.29 1015.29 1015.41 1015.53 1015.69 1015.81 1015.89 1016.01 1016.13 1016.29 1016.41 1016.57 1016.69 1016.85 1017.05 1017.25 1017.33 1017.29 1017.29 1017.37 1017.45 1017.57 1017.69 1017.77 1017.85 1017.97 1018.01 1018.09 1018.13 1018.13
1014.77 1014.73 1014.69 1014.65 1014.65 1014.61 1014.61 1014.61 1014.57 1014.57 1014.53 1014.49 1014.49 1014.49 1014.49 1014.49 1014.49 1014.53 1014.57 1014.57 1014.57 1014.53 1014.49 1014.53 1014.57 1014.65 1014.73 1014.81 1014.69 1014.61 1014.57 1014.61 1014.69 1014.77 1014.89 1015.01 1015.13 1015.25 1015.37 1015.45 1015.53 1015.61 1015.73 1015.85 1015.97 1016.05 1016.17 1016.29 1016.41 1016.57 1016.73 1016.85 1016.97 1017.13 1017.29 1017.37 1017.37 1017.41 1017.49 1017.61 1017.69 1017.73 1017.81 1017.85 1017.97 1018.01 1018.05 1018.13 1018.13
1014.89 1014.85 1014.77 1014.73 1014.69 1014.73 1014.73 1014.77 1014.77 1014.73 1014.69 1014.61 1014.61 1014.57 1014.57 1014.57 1014.61 1014.65 1014.69 1014.69 1014.69 1014.65 1014.65 1014.69 1014.69 1014.73 1014.69 1014.65 1014.57 1014.53 1014.57 1014.69 1014.85 1015.01 1015.21 1015.37 1015.49 1015.57 1015.69 1015.77 1015.85 1015.93 1016.01 1016.09 1016.21 1016.29 1016.41 1016.49 1016.57 1016.69 1016.85 1016.97 1017.13 1017.29 1017.41 1017.41 1017.41 1017.49 1017.61 1017.73 1017.81 1017.85 1017.89 1018.01 1018.09 1018.13 1018.17 1018.25 1018.25
1014.97 1014.97 1014.93 1014.93 1014.93 1014.97 1014.97 1014.97 1014.97 1014.89 1014.85 1014.81 1014.69 1014.69 1014.69 1014.73 1014.77 1014.81 1014.85 1014.81 1014.77 1014.81 1014.85 1014.85 1014.77 1014.73 1014.73 1014.73 1014.77 1014.85 1014.97 1015.09 1015.21 1015.41 1015.65 1015.77 1015.89 1016.01 1016.05 1016.13 1016.17 1016.29 1016.33 1016.41 1016.45 1016.57 1016.61 1016.69 1016.77 1016.89 1016.97 1017.09 1017.17 1017.33 1017.45 1017.53 1017.53 1017.61 1017.73 1017.85 1017.89 1017.97 1018.05 1018.13 1018.25 1018.29 1018.33 1018.37 1018.29
1015.13 1015.13 1015.13 1015.13 1015.13 1015.13 1015.13 1015.13 1015.13 1015.09 1015.05 1014.97 1014.97 1014.97 1014.97 1014.97 1014.97 1014.97 1014.97 1015.01 1015.13 1015.13 1015.13 1015.13 1015.01 1015.01 1015.05 1015.09 1015.13 1015.29 1015.41 1015.53 1015.65 1015.81 1015.97 1016.09 1016.17 1016.29 1016.33 1016.41 1016.49 1016.57 1016.61 1016.69 1016.69 1016.77 1016.85 1016.89 1016.97 1017.05 1017.13 1017.13 1017.25 1017.37 1017.49 1017.57 1017.61 1017.77 1017.93 1018.01 1018.09 1018.17 1018.25 1018.33 1018.41 1018.45 1018.45 1018.41 1018.41
1015.41 1015.33 1015.25 1015.25 1015.29 1015.25 1015.25 1015.29 1015.29 1015.29 1015.29 1015.29 1015.29 1015.37 1015.41 1015.37 1015.29 1015.29 1015.29 1015.37 1015.41 1015.41 1015.41 1015.37 1015.37 1015.41 1015.45 1015.53 1015.57 1015.65 1015.81 1015.97 1016.05 1016.13 1016.25 1016.37 1016.45 1016.53 1016.57 1016.65 1016.69 1016.73 1016.81 1016.85 1016.89 1016.93 1016.97 1017.01 1017.09 1017.17 1017.29 1017.37 1017.41 1017.49 1017.57 1017.65 1017.73 1017.93 1018.13 1018.29 1018.33 1018.41 1018.45 1018.57 1018.61 1018.65 1018.65 1018.61 1018.61
1015.57 1015.53 1015.49 1015.45 1015.45 1015.45 1015.45 1015.45 1015.45 1015.45 1015.45 1015.53 1015.65 1015.73 1015.73 1015.69 1015.69 1015.65 1015.61 1015.61 1015.61 1015.61 1015.65 1015.69 1015.77 1015.81 1015.85 1015.85 1015.93 1016.05 1016.17 1016.29 1016.41 1016.41 1016.49 1016.57 1016.65 1016.73 1016.81 1016.85 1016.89 1016.93 1016.97 1017.01 1017.01 1017.05 1017.13 1017.17 1017.29 1017.41 1017.49 1017.57 1017.69 1017.73 1017.81 1017.85 1017.89 1018.05 1018.29 1018.45 1018.57 1018.65 1018.69 1018.81 1018.85 1018.85 1018.81 1018.85 1018.89
1015.69 1015.69 1015.69 1015.69 1015.69 1015.69 1015.69 1015.69 1015.69 1015.69 1015.77 1015.89 1016.01 1016.05 1016.01 1015.97 1015.93 1015.85 1015.85 1015.85 1015.89 1015.97 1016.01 1016.05 1016.09 1016.13 1016.13 1016.17 1016.25 1016.37 1016.49 1016.57 1016.65 1016.69 1016.73 1016.77 1016.85 1016.89 1016.97 1016.97 1017.01 1017.09 1017.13 1017.13 1017.17 1017.25 1017.29 1017.33 1017.45 1017.57 1017.69 1017.77 1017.85 1017.93 1017.97 1018.01 1018.09 1018.29 1018.49 1018.65 1018.77 1018.85 1018.97 1019.01 1019.01 1019.01 1019.01 1019.05 1019.13
1015.97 1015.97 1015.93 1015.93 1015.93 1015.93 1015.97 1016.01 1016.01 1016.01 1016.13 1016.21 1016.25 1016.29 1016.25 1016.21 1016.13 1016.13 1016.17 1016.21 1016.29 1016.29 1016.29 1016.33 1016.37 1016.37 1016.37 1016.41 1016.49 1016.57 1016.69 1016.77 1016.85 1016.89 1016.97 1016.93 1016.97 1017.01 1017.09 1017.13 1017.13 1017.21 1017.29 1017.29 1017.33 1017.37 1017.41 1017.49 1017.61 1017.69 1017.81 1017.85 1017.97 1018.05 1018.13 1018.21 1018.33 1018.49 1018.65 1018.81 1018.93 1019.01 1019.09 1019.13 1019.13 1019.13 1019.17 1019.21 1019.29
1016.25 1016.21 1016.17 1016.17 1016.17 1016.17 1016.13 1016.17 1016.25 1016.29 1016.37 1016.41 1016.49 1016.49 1016.45 1016.41 1016.41 1016.45 1016.49 1016.57 1016.53 1016.49 1016.53 1016.57 1016.57 1016.57 1016.57 1016.61 1016.69 1016.77 1016.85 1016.89 1016.97 1017.01 1017.09 1017.13 1017.13 1017.21 1017.25 1017.29 1017.29 1017.37 1017.41 1017.45 1017.49 1017.53 1017.57 1017.65 1017.73 1017.85 1017.97 1018.01 1018.13 1018.25 1018.29 1018.41 1018.49 1018.61 1018.77 1018.89 1018.97 1019.09 1019.21 1019.29 1019.29 1019.29 1019.33 1019.41 1019.49
1016.53 1016.49 1016.49 1016.45 1016.45 1016.41 1016.37 1016.41 1016.49 1016.57 1016.61 1016.69 1016.69 1016.69 1016.69 1016.73 1016.77 1016.77 1016.77 1016.73 1016.69 1016.73 1016.81 1016.81 1016.81 1016.81 1016.85 1016.85 1016.85 1016.93 1016.97 1017.01 1017.05 1017.13 1017.21 1017.29 1017.29 1017.37 1017.41 1017.45 1017.49 1017.57 1017.57 1017.61 1017.69 1017.73 1017.77 1017.85 1017.97 1018.05 1018.13 1018.25 1018.33 1018.41 1018.45 1018.49 1018.57 1018.73 1018.89 1019.01 1019.13 1019.21 1019.33 1019.41 1019.45 1019.49 1019.57 1019.57 1019.65
1016.77 1016.73 1016.69 1016.69 1016.69 1016.61 1016.61 1016.69 1016.81 1016.89 1016.93 1016.97 1016.97 1016.97 1016.97 1017.01 1017.05 1017.01 1016.93 1016.85 1016.89 1016.97 1017.05 1017.05 1017.01 1017.01 1017.05 1017.05 1017.05 1017.09 1017.13 1017.25 1017.29 1017.33 1017.41 1017.49 1017.57 1017.61 1017.65 1017.69 1017.73 1017.77 1017.81 1017.85 1017.93 1018.01 1018.01 1018.09 1018.17 1018.29 1018.41 1018.45 1018.57 1018.57 1018.57 1018.61 1018.73 1018.85 1019.01 1019.13 1019.29 1019.37 1019.45 1019.57 1019.65 1019.69 1019.73 1019.77 1019.85
1016.97 1016.97 1016.97 1016.93 1016.89 1016.89 1016.93 1017.01 1017.13 1017.17 1017.25 1017.25 1017.25 1017.29 1017.29 1017.29 1017.25 1017.17 1017.13 1017.09 1017.13 1017.17 1017.25 1017.29 1017.29 1017.29 1017.33 1017.33 1017.37 1017.41 1017.41 1017.45 1017.53 1017.61 1017.69 1017.77 1017.85 1017.89 1017.89 1017.93 1018.01 1018.01 1018.09 1018.13 1018.21 1018.21 1018.29 1018.33 1018.41 1018.53 1018.61 1018.69 1018.73 1018.77 1018.81 1018.85 1018.89 1018.97 1019.13 1019.25 1019.37 1019.53 1019.61 1019.69 1019.81 1019.85 1019.89 1020.01 1020.01
1017.25 1017.25 1017.25 1017.21 1017.17 1017.21 1017.25 1017.33 1017.41 1017.45 1017.49 1017.49 1017.49 1017.49 1017.49 1017.45 1017.41 1017.37 1017.29 1017.29 1017.37 1017.41 1017.45 1017.49 1017.53 1017.57 1017.57 1017.61 1017.69 1017.69 1017.73 1017.77 1017.81 1017.85 1017.93 1018.01 1018.13 1018.13 1018.17 1018.21 1018.25 1018.29 1018.33 1018.41 1018.41 1018.45 1018.49 1018.57 1018.69 1018.73 1018.81 1018.89 1018.97 1019.01 1019.09 1019.09 1019.13 1019.13 1019.21 1019.33 1019.45 1019.61 1019.73 1019.85 1019.97 1020.01 1020.13 1020.17 1020.25
1017.53 1017.57 1017.53 1017.49 1017.49 1017.53 1017.57 1017.61 1017.69 1017.69 1017.73 1017.73 1017.73 1017.69 1017.69 1017.65 1017.65 1017.61 1017.57 1017.57 1017.61 1017.65 1017.69 1017.69 1017.73 1017.77 1017.85 1017.85 1017.85 1017.93 1018.01 1018.01 1018.05 1018.09 1018.17 1018.29 1018.33 1018.41 1018.41 1018.45 1018.49 1018.53 1018.57 1018.57 1018.65 1018.69 1018.73 1018.81 1018.85 1018.97 1019.01 1019.13 1019.17 1019.29 1019.33 1019.33 1019.37 1019.37 1019.41 1019.53 1019.57 1019.69 1019.85 1020.01 1020.13 1020.25 1020.33 1020.41 1020.45
1017.81 1017.81 1017.77 1017.77 1017.81 1017.81 1017.85 1017.89 1017.97 1017.97 1017.97 1017.97 1017.93 1017.93 1017.89 1017.89 1017.89 1017.85 1017.85 1017.85 1017.85 1017.85 1017.89 1017.93 1018.01 1018.05 1018.09 1018.09 1018.13 1018.13 1018.17 1018.21 1018.25 1018.29 1018.41 1018.53 1018.57 1018.61 1018.65 1018.65 1018.69 1018.73 1018.77 1018.77 1018.85 1018.89 1018.97 1019.01 1019.09 1019.13 1019.25 1019.29 1019.41 1019.45 1019.53 1019.53 1019.57 1019.65 1019.69 1019.77 1019.85 1019.89 1020.01 1020.13 1020.29 1020.45 1020.57 1020.61 1020.69
1018.05 1018.05 1018.01 1018.01 1018.05 1018.09 1018.13 1018.17 1018.17 1018.21 1018.21 1018.17 1018.13 1018.13 1018.13 1018.13 1018.13 1018.09 1018.09 1018.13 1018.13 1018.17 1018.17 1018.17 1018.21 1018.21 1018.25 1018.29 1018.33 1018.37 1018.41 1018.41 1018.45 1018.53 1018.65 1018.73 1018.77 1018.81 1018.85 1018.85 1018.89 1018.93 1018.97 1018.97 1019.01 1019.13 1019.17 1019.29 1019.33 1019.37 1019.41 1019.53 1019.57 1019.65 1019.69 1019.73 1019.77 1019.85 1019.93 1020.01 1020.13 1020.17 1020.29 1020.37 1020.49 1020.61 1020.73 1020.85 1020.89
1018.29 1018.29 1018.29 1018.29 1018.29 1018.33 1018.37 1018.41 1018.41 1018.41 1018.41 1018.41 1018.41 1018.37 1018.37 1018.37 1018.33 1018.37 1018.41 1018.41 1018.41 1018.41 1018.37 1018.37 1018.41 1018.41 1018.45 1018.53 1018.57 1018.61 1018.65 1018.65 1018.69 1018.73 1018.81 1018.89 1018.93 1018.97 1018.97 1019.01 1019.09 1019.13 1019.13 1019.17 1019.25 1019.33 1019.41 1019.45 1019.53 1019.57 1019.65 1019.69 1019.77 1019.81 1019.85 1019.89 1019.97 1020.01 1020.09 1020.17 1020.29 1020.41 1020.49 1020.57 1020.69 1020.81 1020.93 1021.01 1021.09
1018.53 1018.49 1018.49 1018.49 1018.53 1018.57 1018.57 1018.57 1018.57 1018.61 1018.65 1018.65 1018.61 1018.61 1018.65 1018.65 1018.65 1018.65 1018.65 1018.61 1018.57 1018.57 1018.57 1018.57 1018.61 1018.69 1018.73 1018.77 1018.81 1018.85 1018.85 1018.89 1018.89 1018.93 1018.97 1019.01 1019.09 1019.09 1019.13 1019.13 1019.17 1019.25 1019.29 1019.37 1019.41 1019.53 1019.57 1019.61 1019.69 1019.73 1019.81 1019.85 1019.93 1020.01 1020.05 1020.05 1020.13 1020.17 1020.29 1020.37 1020.45 1020.57 1020.65 1020.73 1020.85 1020.97 1021.05 1021.13 1021.21
1018.73 1018.69 1018.69 1018.69 1018.69 1018.73 1018.77 1018.77 1018.85 1018.85 1018.85 1018.85 1018.89 1018.89 1018.93 1018.93 1018.89 1018.85 1018.85 1018.85 1018.85 1018.85 1018.81 1018.85 1018.85 1018.93 1018.97 1018.97 1019.01 1019.05 1019.09 1019.13 1019.13 1019.13 1019.17 1019.21 1019.25 1019.25 1019.25 1019.25 1019.29 1019.37 1019.41 1019.53 1019.57 1019.65 1019.69 1019.77 1019.81 1019.85 1019.93 1020.01 1020.09 1020.13 1020.21 1020.29 1020.29 1020.37 1020.41 1020.53 1020.61 1020.69 1020.81 1020.89 1020.97 1021.09 1021.17 1021.29 1021.33
1018.89 1018.89 1018.85 1018.85 1018.89 1018.93 1018.97 1018.97 1019.01 1019.05 1019.09 1019.09 1019.13 1019.13 1019.13 1019.13 1019.09 1019.09 1019.13 1019.13 1019.13 1019.09 1019.05 1019.05 1019.05 1019.13 1019.13 1019.17 1019.21 1019.29 1019.29 1019.33 1019.33 1019.33 1019.37 1019.41 1019.41 1019.41 1019.41 1019.41 1019.49 1019.57 1019.61 1019.69 1019.73 1019.81 1019.85 1019.89 1019.97 1020.01 1020.09 1020.17 1020.25 1020.33 1020.41 1020.49 1020.53 1020.57 1020.61 1020.69 1020.77 1020.85 1020.97 1021.05 1021.17 1021.29 1021.33 1021.41 1021.45
1019.05 1019.05 1019.01 1019.05 1019.09 1019.13 1019.13 1019.17 1019.21 1019.25 1019.29 1019.29 1019.29 1019.29 1019.29 1019.29 1019.29 1019.29 1019.33 1019.37 1019.33 1019.29 1019.29 1019.29 1019.29 1019.29 1019.33 1019.41 1019.41 1019.45 1019.49 1019.53 1019.57 1019.57 1019.57 1019.57 1019.65 1019.69 1019.69 1019.69 1019.73 1019.81 1019.85 1019.85 1019.89 1019.97 1020.01 1020.05 1020.13 1020.21 1020.29 1020.37 1020.45 1020.57 1020.61 1020.69 1020.73 1020.81 1020.81 1020.85 1020.93 1021.01 1021.09 1021.21 1021.29 1021.41 1021.49 1021.57 1021.57
1019.21 1019.21 1019.21 1019.25 1019.25 1019.29 1019.33 1019.37 1019.37 1019.41 1019.41 1019.45 1019.49 1019.49 1019.49 1019.45 1019.49 1019.49 1019.53 1019.53 1019.49 1019.45 1019.49 1019.49 1019.53 1019.57 1019.57 1019.61 1019.65 1019.69 1019.69 1019.69 1019.77 1019.81 1019.85 1019.85 1019.89 1019.93 1019.93 1019.93 1019.97 1020.01 1020.01 1020.05 1020.09 1020.13 1020.13 1020.21 1020.29 1020.41 1020.45 1020.57 1020.65 1020.73 1020.81 1020.85 1020.93 1020.97 1020.97 1021.05 1021.13 1021.17 1021.25 1021.33 1021.45 1021.53 1021.57 1021.65 1021.69
1019.33 1019.37 1019.37 1019.41 1019.41 1019.41 1019.45 1019.49 1019.53 1019.53 1019.53 1019.57 1019.65 1019.65 1019.65 1019.65 1019.65 1019.65 1019.69 1019.69 1019.65 1019.69 1019.69 1019.69 1019.73 1019.77 1019.81 1019.81 1019.85 1019.85 1019.85 1019.89 1019.97 1020.01 1020.09 1020.09 1020.13 1020.13 1020.13 1020.13 1020.13 1020.13 1020.13 1020.17 1020.21 1020.25 1020.29 1020.41 1020.49 1020.57 1020.65 1020.73 1020.85 1020.93 1020.97 1021.05 1021.09 1021.13 1021.13 1021.21 1021.25 1021.33 1021.41 1021.49 1021.57 1021.61 1021.69 1021.77 1021.81
1019.49 1019.53 1019.53 1019.57 1019.57 1019.57 1019.57 1019.57 1019.61 1019.65 1019.65 1019.69 1019.73 1019.77 1019.77 1019.81 1019.85 1019.85 1019.85 1019.85 1019.85 1019.85 1019.85 1019.85 1019.85 1019.89 1019.97 1020.01 1020.01 1020.01 1020.05 1020.09 1020.13 1020.21 1020.29 1020.29 1020.29 1020.25 1020.21 1020.21 1020.21 1020.21 1020.21 1020.21 1020.25 1020.29 1020.41 1020.53 1020.65 1020.73 1020.85 1020.97 1021.01 1021.13 1021.13 1021.17 1021.25 1021.29 1021.29 1021.33 1021.41 1021.45 1021.53 1021.61 1021.69 1021.77 1021.85 1021.93 1021.97
1019.57 1019.61 1019.65 1019.65 1019.69 1019.69 1019.69 1019.69 1019.73 1019.77 1019.85 1019.85 1019.89 1019.93 1019.93 1019.97 1020.01 1020.01 1020.01 1020.01 1020.01 1019.97 1019.93 1019.93 1020.01 1020.05 1020.13 1020.13 1020.17 1020.21 1020.29 1020.33 1020.41 1020.41 1020.41 1020.41 1020.37 1020.33 1020.33 1020.29 1020.29 1020.29 1020.29 1020.25 1020.29 1020.33 1020.45 1020.61 1020.73 1020.85 1020.97 1021.05 1021.13 1021.17 1021.25 1021.33 1021.37 1021.41 1021.41 1021.45 1021.49 1021.57 1021.69 1021.81 1021.89 1021.97 1022.01 1022.09 1022.13
1019.69 1019.69 1019.77 1019.77 1019.77 1019.81 1019.85 1019.85 1019.89 1019.97 1020.01 1020.01 1020.05 1020.09 1020.09 1020.09 1020.13 1020.13 1020.13 1020.13 1020.09 1020.05 1020.05 1020.09 1020.13 1020.21 1020.29 1020.33 1020.37 1020.41 1020.49 1020.57 1020.57 1020.61 1020.57 1020.53 1020.49 1020.45 1020.45 1020.41 1020.41 1020.41 1020.37 1020.29 1020.37 1020.41 1020.53 1020.69 1020.81 1020.93 1021.05 1021.13 1021.25 1021.33 1021.41 1021.49 1021.57 1021.61 1021.69 1021.69 1021.73 1021.85 1021.93 1022.05 1022.13 1022.25 1022.29 1022.33 1022.37
1019.85 1019.85 1019.85 1019.89 1019.89 1019.93 1019.97 1020.01 1020.09 1020.13 1020.13 1020.17 1020.17 1020.21 1020.25 1020.25 1020.25 1020.25 1020.21 1020.21 1020.17 1020.21 1020.25 1020.29 1020.37 1020.41 1020.45 1020.53 1020.57 1020.61 1020.69 1020.69 1020.73 1020.77 1020.73 1020.69 1020.69 1020.69 1020.61 1020.57 1020.57 1020.53 1020.45 1020.45 1020.49 1020.57 1020.65 1020.77 1020.93 1021.09 1021.21 1021.33 1021.41 1021.53 1021.61 1021.69 1021.81 1021.85 1021.93 1021.97 1022.05 1022.13 1022.25 1022.33 1022.41 1022.45 1022.53 1022.57 1022.57
1019.97 1019.93 1019.93 1020.01 1020.01 1020.05 1020.09 1020.17 1020.25 1020.29 1020.29 1020.29 1020.29 1020.29 1020.33 1020.33 1020.33 1020.33 1020.33 1020.33 1020.33 1020.41 1020.45 1020.57 1020.57 1020.61 1020.65 1020.73 1020.77 1020.85 1020.89 1020.93 1020.97 1020.93 1020.93 1020.93 1020.85 1020.85 1020.77 1020.73 1020.69 1020.65 1020.61 1020.61 1020.69 1020.77 1020.85 1020.97 1021.13 1021.29 1021.41 1021.57 1021.77 1021.89 1021.93 1022.01 1022.01 1022.09 1022.17 1022.29 1022.33 1022.41 1022.49 1022.57 1022.61 1022.69 1022.69 1022.69 1022.69
1020.01 1020.01 1020.05 1020.09 1020.13 1020.17 1020.29 1020.37 1020.41 1020.41 1020.41 1020.41 1020.41 1020.41 1020.41 1020.41 1020.45 1020.45 1020.45 1020.53 1020.57 1020.69 1020.73 1020.77 1020.81 1020.89 1020.97 1020.97 1021.01 1021.13 1021.13 1021.17 1021.17 1021.17 1021.13 1021.09 1021.01 1020.97 1020.97 1020.93 1020.85 1020.85 1020.81 1020.81 1020.89 1020.97 1021.09 1021.21 1021.33 1021.49 1021.69 1021.85 1022.01 1022.09 1022.13 1022.21 1022.25 1022.29 1022.41 1022.49 1022.57 1022.61 1022.65 1022.69 1022.73 1022.81 1022.81 1022.81 1022.73
1020.13 1020.13 1020.13 1020.17 1020.25 1020.33 1020.41 1020.49 1020.53 1020.53 1020.49 1020.49 1020.53 1020.53 1020.53 1020.57 1020.61 1020.65 1020.69 1020.77 1020.85 1020.93 1020.97 1021.01 1021.09 1021.13 1021.21 1021.29 1021.33 1021.41 1021.41 1021.41 1021.41 1021.37 1021.33 1021.25 1021.21 1021.21 1021.17 1021.13 1021.09 1021.09 1021.05 1021.05 1021.13 1021.25 1021.37 1021.45 1021.61 1021.77 1021.93 1022.01 1022.21 1022.29 1022.33 1022.41 1022.45 1022.57 1022.61 1022.69 1022.73 1022.77 1022.81 1022.85 1022.85 1022.85 1022.85 1022.85 1022.77
1020.25 1020.29 1020.29 1020.33 1020.41 1020.53 1020.57 1020.61 1020.61 1020.61 1020.61 1020.65 1020.65 1020.69 1020.73 1020.77 1020.85 1020.89 1020.97 1021.05 1021.13 1021.17 1021.25 1021.29 1021.37 1021.41 1021.49 1021.57 1021.61 1021.65 1021.65 1021.65 1021.61 1021.57 1021.53 1021.49 1021.41 1021.37 1021.33 1021.33 1021.33 1021.33 1021.33 1021.37 1021.41 1021.53 1021.65 1021.77 1021.85 1022.01 1022.13 1022.21 1022.37 1022.49 1022.57 1022.57 1022.65 1022.69 1022.77 1022.81 1022.85 1022.89 1022.93 1022.93 1022.93 1022.93 1022.93 1022.89 1022.85
1020.37 1020.41 1020.45 1020.57 1020.61 1020.69 1020.77 1020.81 1020.81 1020.81 1020.85 1020.85 1020.85 1020.89 1020.93 1020.97 1021.05 1021.13 1021.25 1021.29 1021.37 1021.45 1021.53 1021.57 1021.65 1021.69 1021.73 1021.81 1021.85 1021.85 1021.85 1021.85 1021.81 1021.77 1021.69 1021.69 1021.61 1021.57 1021.57 1021.57 1021.57 1021.57 1021.57 1021.61 1021.69 1021.81 1021.89 1022.01 1022.13 1022.21 1022.29 1022.41 1022.53 1022.65 1022.73 1022.77 1022.81 1022.85 1022.93 1022.97 1022.97 1023.01 1023.01 1023.01 1023.01 1023.01 1022.97 1022.97 1022.93
1020.53 1020.57 1020.65 1020.69 1020.81 1020.89 1020.97 1020.97 1021.01 1021.01 1021.01 1021.05 1021.09 1021.13 1021.17 1021.21 1021.29 1021.37 1021.45 1021.57 1021.65 1021.69 1021.77 1021.85 1021.89 1021.97 1022.01 1022.01 1022.01 1022.01 1022.01 1022.01 1022.01 1022.01 1021.97 1021.89 1021.85 1021.77 1021.73 1021.73 1021.81 1021.81 1021.81 1021.85 1021.97 1022.01 1022.13 1022.21 1022.29 1022.41 1022.49 1022.57 1022.73 1022.85 1022.89 1022.93 1022.97 1023.09 1023.13 1023.13 1023.13 1023.13 1023.13 1023.13 1023.09 1023.09 1023.09 1023.01 1023.01
1020.69 1020.73 1020.85 1020.89 1020.97 1021.09 1021.13 1021.17 1021.21 1021.25 1021.29 1021.29 1021.33 1021.41 1021.41 1021.45 1021.53 1021.61 1021.69 1021.77 1021.85 1021.97 1022.01 1022.13 1022.13 1022.21 1022.29 1022.25 1022.29 1022.29 1022.25 1022.25 1022.29 1022.25 1022.17 1022.13 1022.05 1022.01 1022.01 1022.01 1022.01 1022.05 1022.05 1022.13 1022.21 1022.29 1022.33 1022.41 1022.49 1022.57 1022.69 1022.81 1022.97 1023.05 1023.09 1023.13 1023.17 1023.25 1023.29 1023.29 1023.29 1023.25 1023.21 1023.21 1023.17 1023.13 1023.13 1023.13 1023.09
1020.85 1020.93 1021.01 1021.13 1021.17 1021.29 1021.33 1021.37 1021.41 1021.41 1021.45 1021.53 1021.57 1021.61 1021.65 1021.69 1021.81 1021.85 1021.97 1022.01 1022.09 1022.17 1022.25 1022.33 1022.37 1022.41 1022.45 1022.49 1022.53 1022.53 1022.49 1022.49 1022.49 1022.49 1022.45 1022.41 1022.37 1022.29 1022.29 1022.29 1022.29 1022.29 1022.29 1022.37 1022.41 1022.45 1022.53 1022.57 1022.65 1022.73 1022.85 1022.97 1023.13 1023.17 1023.25 1023.29 1023.33 1023.41 1023.41 1023.41 1023.41 1023.41 1023.37 1023.33 1023.29 1023.25 1023.21 1023.13 1023.13
1021.01 1021.13 1021.21 1021.29 1021.37 1021.41 1021.49 1021.53 1021.57 1021.61 1021.65 1021.73 1021.77 1021.85 1021.89 1021.97 1022.05 1022.13 1022.21 1022.25 1022.33 1022.41 1022.45 1022.53 1022.57 1022.61 1022.65 1022.69 1022.73 1022.77 1022.81 1022.77 1022.73 1022.69 1022.69 1022.65 1022.61 1022.61 1022.61 1022.61 1022.61 1022.57 1022.49 1022.53 1022.57 1022.61 1022.69 1022.73 1022.81 1022.89 1022.97 1023.13 1023.21 1023.29 1023.33 1023.41 1023.45 1023.53 1023.57 1023.57 1023.57 1023.53 1023.49 1023.41 1023.33 1023.29 1023.29 1023.21 1023.13
1021.21 1021.29 1021.33 1021.45 1021.53 1021.57 1021.65 1021.69 1021.69 1021.77 1021.85 1021.89 1021.97 1022.05 1022.13 1022.17 1022.29 1022.37 1022.41 1022.45 1022.49 1022.57 1022.69 1022.69 1022.77 1022.81 1022.85 1022.85 1022.93 1022.97 1022.97 1022.97 1022.89 1022.89 1022.89 1022.85 1022.85 1022.85 1022.85 1022.85 1022.81 1022.77 1022.69 1022.61 1022.65 1022.69 1022.77 1022.81 1022.89 1022.97 1023.09 1023.21 1023.33 1023.41 1023.45 1023.53 1023.61 1023.65 1023.65 1023.69 1023.69 1023.65 1023.57 1023.53 1023.45 1023.41 1023.37 1023.29 1023.05
1021.37 1021.41 1021.49 1021.57 1021.69 1021.73 1021.77 1021.85 1021.85 1021.97 1022.01 1022.09 1022.13 1022.25 1022.29 1022.37 1022.45 1022.57 1022.61 1022.65 1022.69 1022.73 1022.81 1022.89 1022.97 1022.97 1022.97 1022.97 1022.97 1023.01 1023.05 1023.05 1022.97 1022.97 1022.97 1023.01 1022.97 1022.93 1022.97 1023.01 1023.01 1022.97 1022.85 1022.69 1022.69 1022.73 1022.77 1022.85 1022.89 1022.97 1023.09 1023.29 1023.41 1023.45 1023.57 1023.61 1023.69 1023.77 1023.81 1023.81 1023.77 1023.69 1023.65 1023.57 1023.57 1023.53 1023.49 1023.41 1023.09
1021.53 1021.57 1021.69 1021.73 1021.81 1021.85 1021.93 1022.01 1022.05 1022.13 1022.17 1022.25 1022.29 1022.41 1022.49 1022.53 1022.61 1022.69 1022.73 1022.81 1022.85 1022.89 1022.93 1023.01 1023.09 1023.13 1023.09 1023.05 1023.05 1023.09 1023.13 1023.13 1023.13 1023.13 1023.09 1023.13 1023.09 1023.01 1023.01 1023.13 1023.17 1023.17 1023.01 1022.81 1022.73 1022.73 1022.77 1022.85 1022.85 1022.97 1023.13 1023.37 1023.45 1023.53 1023.61 1023.69 1023.81 1023.89 1023.93 1023.89 1023.85 1023.81 1023.69 1023.61 1023.61 1023.61 1023.61 1023.57 1023.33
1021.69 1021.77 1021.85 1021.89 1021.93 1022.01 1022.05 1022.13 1022.21 1022.25 1022.29 1022.37 1022.41 1022.49 1022.57 1022.61 1022.69 1022.81 1022.85 1022.93 1022.97 1023.01 1023.05 1023.13 1023.21 1023.25 1023.21 1023.17 1023.17 1023.17 1023.17 1023.21 1023.21 1023.21 1023.17 1023.17 1023.17 1023.13 1023.13 1023.25 1023.25 1023.25 1023.17 1022.97 1022.85 1022.81 1022.85 1022.85 1022.89 1022.97 1023.17 1023.41 1023.53 1023.57 1023.65 1023.69 1023.85 1023.97 1024.01 1023.97 1023.93 1023.89 1023.85 1023.77 1023.69 1023.69 1023.69 1023.65 1023.57
Wind_Speed
2 2 1 1 1 1 1 1 1 1 0 1 1 1 1 2 1 1 1 1 1 1 1 2 2 1 1 1 2 3 3 4 4 4 5 6 6 6 7 6 6 6 6 6 6 5 5 4 4 3 2 2 3 2 2 1 2 2 3 3 2 1 0 2 3 4 4 4 3
4 4 3 3 3 2 2 3 3 3 2 2 2 1 1 1 1 1 1 1 0 0 0 0 1 1 1 2 3 3 4 5 6 6 7 7 7 7 7 6 6 6 6 6 6 5 4 4 3 3 3 3 3 3 3 2 3 3 4 4 3 2 1 1 0 0 1 1 0
5 5 5 5 5 4 4 4 4 4 4 3 3 3 3 3 3 3 3 3 4 4 3 2 1 0 0 1 3 4 6 6 7 8 8 7 8 7 7 6 7 7 7 6 6 5 5 4 4 3 3 3 3 3 3 2 3 3 4 3 2 2 2 2 2 2 1 1 2
6 6 5 5 6 5 5 5 5 5 5 4 4 5 5 5 4 4 4 5 6 6 6 5 4 4 4 5 8 9 9 9 10 9 9 8 8 8 8 7 7 7 7 6 6 6 6 5 4 3 3 4 4 3 3 2 3 3 3 2 2 2 2 2 1 1 1 2 2
6 6 5 5 6 5 5 5 6 6 5 5 5 6 6 5 5 5 5 5 6 6 7 8 7 7 8 9 11 11 11 11 11 10 9 9 9 9 8 8 8 7 6 6 6 6 5 5 3 3 3 3 3 3 3 3 4 3 3 2 2 2 2 2 1 1 1 1 2
6 6 6 7 7 7 6 6 7 7 6 6 7 7 7 6 6 6 6 6 6 7 8 9 9 9 9 10 11 11 11 10 9 9 9 9 8 8 8 8 8 7 6 6 5 5 5 4 3 3 3 3 3 3 3 4 4 4 3 3 3 2 2 1 1 1 1 2 3
6 7 8 8 9 8 8 7 7 7 7 8 9 9 8 7 7 8 8 7 7 7 8 8 9 9 9 9 10 10 9 9 8 8 8 8 8 8 8 8 7 7 6 6 6 6 5 5 4 3 3 3 3 3 4 4 4 4 4 3 3 3 3 2 2 2 3 4 4
7 8 8 9 9 9 9 9 8 8 8 8 9 9 9 9 9 9 8 8 7 7 7 7 8 9 9 9 9 9 9 8 8 8 7 7 7 8 7 7 7 7 7 6 6 6 5 5 4 3 3 3 2 3 3 5 5 5 5 4 3 3 3 3 3 3 3 5 4
7 8 8 9 9 9 9 10 10 9 9 9 9 9 9 9 9 9 8 7 7 7 7 7 8 9 9 9 9 8 8 7 7 7 7 7 7 7 7 6 7 6 6 6 6 6 6 5 4 3 3 2 2 3 4 5 6 6 6 4 4 3 3 3 4 4 4 5 5
8 8 8 9 8 8 9 9 10 10 10 10 10 10 10 10 9 8 7 5 6 7 7 7 7 8 8 8 8 7 7 6 7 7 7 7 7 7 6 6 6 6 6 5 5 5 5 4 4 4 3 3 3 4 5 6 7 6 5 4 4 4 4 4 4 4 5 5 5
8 8 8 8 8 8 9 9 9 9 9 9 9 10 10 10 8 7 6 5 7 8 8 7 8 8 7 7 7 7 6 6 7 7 8 8 8 8 7 7 7 7 6 6 5 4 4 4 4 5 5 4 4 4 5 6 6 6 6 4 5 5 5 5 5 4 4 4 4
8 8 8 8 8 9 9 9 8 8 9 9 9 9 8 8 7 6 6 7 8 8 7 7 8 7 7 6 7 7 7 7 8 8 8 8 8 8 8 8 8 8 7 7 5 4 4 5 5 6 6 5 4 4 5 6 6 6 6 6 6 5 5 5 4 4 3 4 4
9 8 8 8 9 9 9 9 8 7 8 8 8 7 7 7 7 6 6 8 8 7 7 7 7 7 7 7 7 7 7 8 8 8 8 7 7 7 8 8 8 8 7 7 6 5 5 6 6 6 6 6 5 5 5 6 6 6 6 6 6 5 5 5 4 4 4 4 4
9 9 9 9 9 9 8 8 7 7 7 7 7 6 6 6 7 7 7 7 8 7 7 7 7 7 7 8 8 7 7 8 9 9 9 8 8 8 8 8 8 7 7 7 7 7 7 7 7 7 7 7 6 6 5 5 5 5 6 6 6 6 5 5 4 4 4 4 4
9 9 9 9 9 8 8 7 6 6 6 7 6 6 6 6 7 7 7 7 7 7 6 6 6 7 8 9 9 9 8 8 9 9 9 9 8 8 8 8 8 7 7 7 7 8 8 8 7 7 7 7 7 6 6 6 5 5 6 6 6 6 5 5 5 5 4 4 4
9 8 8 9 8 8 7 6 5 5 6 6 6 6 6 6 6 6 7 7 6 6 6 7 7 7 7 8 9 9 9 9 9 9 9 9 8 8 8 8 8 8 8 8 8 8 8 8 7 7 7 7 7 6 6 6 6 7 6 6 6 6 6 6 6 5 5 5 4
8 8 8 8 8 8 7 6 6 5 6 6 7 6 6 5 6 6 7 7 6 6 6 7 6 7 7 8 8 8 8 8 9 9 9 8 8 8 8 8 8 8 8 8 8 8 8 7 7 7 7 7 7 7 7 7 7 7 7 7 7 7 7 7 6 6 5 5 5
8 7 7 8 8 8 7 7 6 6 6 7 7 7 6 6 6 7 7 7 6 6 7 7 7 7 7 7 7 7 7 7 8 8 8 8 8 8 8 8 8 8 8 8 8 8 8 7 7 7 7 7 7 7 7 7 8 8 8 8 8 8 8 7 7 6 6 5 5
6 6 7 7 7 7 7 7 7 7 7 7 7 7 7 7 7 7 7 7 7 7 7 8 8 8 7 7 7 7 7 7 7 7 7 7 7 7 7 7 8 8 8 8 8 7 7 7 7 7 7 7 7 7 7 8 8 8 8 9 9 8 8 8 7 7 6 5 5
6 6 6 6 6 7 7 7 8 8 7 7 8 8 8 8 7 8 7 7 7 7 7 7 8 8 8 8 8 7 6 6 6 7 7 6 6 7 7 7 8 8 8 7 7 7 7 7 7 7 8 8 8 8 8 8 8 8 9 8 9 9 8 8 8 7 6 6 5
6 6 6 7 7 7 7 8 8 8 7 7 7 7 7 8 8 8 8 7 7 7 7 8 8 8 8 8 7 7 6 6 6 6 6 6 7 7 7 7 7 7 7 7 7 7 7 7 7 7 8 8 8 8 8 8 8 8 8 8 8 8 8 8 7 7 6 6 5
5 6 6 7 7 8 7 7 7 7 7 6 7 7 7 8 8 8 8 7 7 7 7 7 8 8 8 8 8 7 7 6 7 7 7 7 7 7 7 7 7 7 7 7 7 7 8 8 8 8 8 8 8 8 7 7 7 8 8 8 8 8 8 7 7 6 6 5 5
5 6 6 7 7 7 7 7 6 6 6 6 7 7 7 7 7 7 7 7 7 7 7 7 7 8 8 8 8 8 8 8 8 8 7 7 7 6 6 6 7 7 7 6 6 6 7 8 8 8 8 7 7 7 7 7 7 7 7 8 8 8 7 7 6 6 6 5 5
5 5 5 5 6 6 6 6 6 6 7 7 6 7 7 7 7 7 7 7 7 7 7 7 7 8 8 8 8 8 8 8 8 8 7 6 6 6 6 5 5 6 6 5 6 7 7 6 6 7 7 6 6 6 6 6 6 6 6 7 7 7 7 6 6 6 6 5 4
5 5 5 5 6 6 6 5 6 6 6 6 6 6 6 6 6 6 6 7 7 7 7 8 8 8 8 8 7 7 7 8 8 7 6 6 5 5 5 5 4 4 4 6 10 11 10 8 7 6 5 5 5 5 5 5 5 5 6 6 6 6 6 6 6 6 5 5 4
5 5 6 6 6 6 6 6 6 6 6 6 6 6 5 5 5 5 6 6 7 7 7 7 8 8 7 7 7 7 7 6 6 6 5 5 5 5 5 4 4 3 4 8 11 12 12 12 10 8 6 4 5 5 5 5 5 5 5 5 5 5 5 5 5 5 5 4 4
5 5 6 6 6 6 7 6 6 6 6 5 5 5 5 5 5 5 5 6 6 7 7 7 7 7 7 6 6 6 6 6 6 6 6 6 6 6 6 5 4 4 5 10 12 12 12 12 12 10 8 5 5 5 5 4 5 5 5 5 5 5 5 5 5 5 5 4 4
5 5 5 6 6 7 6 6 6 5 5 5 5 5 5 5 5 5 6 6 6 6 6 6 6 5 5 5 6 6 6 6 6 7 7 7 7 6 6 5 4 5 8 12 12 12 12 12 12 11 10 7 5 5 5 5 5 5 5 5 5 5 5 5 4 4 4 4 4
5 5 6 6 6 6 6 6 5 5 5 5 5 5 6 6 6 6 6 6 6 6 5 4 4 4 4 5 6 7 7 7 7 6 6 6 6 6 5 5 5 7 10 13 12 12 12 12 12 12 11 9 6 4 4 4 4 5 5 5 5 5 5 4 4 4 3 3 3
5 5 6 6 6 6 6 5 5 5 5 5 5 6 6 6 6 6 6 7 7 6 6 5 5 6 6 7 7 7 7 6 6 5 5 5 6 6 6 5 5 7 10 13 12 12 12 12 12 12 12 11 8 6 4 4 4 5 5 4 5 5 5 4 4 3 3 3 3
5 6 6 6 6 6 6 5 4 4 5 5 5 6 6 6 6 6 7 7 7 7 7 7 7 8 8 7 7 6 6 5 5 5 5 6 7 7 6 6 6 8 10 13 13 13 13 13 13 13 13 12 9 6 5 5 5 5 4 4 4 4 4 3 3 3 3 3 3
6 6 6 7 6 6 5 5 5 5 5 5 5 5 6 6 6 7 7 7 7 8 8 7 8 8 8 7 6 6 6 6 6 5 5 6 6 6 7 7 7 9 11 13 13 13 13 13 13 13 13 13 9 7 5 5 5 5 4 4 4 3 3 2 2 2 3 3 3
6 6 6 7 7 6 5 5 5 6 6 6 6 6 6 7 7 8 8 7 6 7 7 7 7 7 7 7 6 5 5 5 6 6 6 6 6 7 7 7 7 9 12 14 14 13 13 13 13 14 14 13 9 6 5 5 4 4 4 3 3 2 2 2 2 2 2 2 2
6 6 6 7 6 6 5 5 6 6 6 6 6 6 7 7 8 8 8 7 6 6 6 6 6 6 6 6 5 6 6 6 6 6 6 6 6 7 7 6 6 9 12 14 13 13 13 13 14 14 13 12 8 5 4 4 3 3 3 3 2 2 2 2 2 2 2 2 2
6 6 6 6 6 6 5 6 6 6 6 7 7 7 7 7 7 7 7 7 7 6 6 6 6 6 5 5 5 6 6 6 6 6 7 7 7 8 8 7 7 10 13 13 13 13 13 13 13 13 12 9 6 4 4 4 3 3 3 2 2 2 2 2 2 2 2 2 2
5 6 6 6 5 5 5 5 6 6 6 7 7 7 7 6 6 6 6 7 7 6 6 6 5 5 5 5 6 6 6 6 6 6 6 6 6 7 7 7 7 9 12 13 13 13 13 13 13 12 10 6 4 3 3 3 3 2 2 2 2 2 3 2 2 2 2 2 2
5 5 5 5 5 5 5 5 6 6 6 6 6 6 6 6 5 5 5 5 6 6 6 6 6 6 5 5 5 5 4 4 5 5 5 5 5 5 5 5 5 7 10 13 12 12 12 12 12 10 7 4 3 2 2 2 2 2 3 3 2 2 3 2 2 2 2 2 2
5 5 5 5 5 5 5 5 6 6 6 6 6 5 5 5 5 4 4 4 5 6 6 6 6 5 5 5 4 4 4 3 4 4 4 4 4 4 4 3 3 4 7 10 11 11 11 10 10 8 6 3 2 2 2 2 2 2 2 2 2 3 3 3 2 2 3 3 3
5 5 5 5 5 5 5 5 6 6 6 6 5 5 5 4 4 4 4 4 5 5 6 6 6 5 5 5 5 4 4 4 4 4 4 3 3 3 3 3 2 2 3 7 9 9 9 9 8 7 6 3 2 2 2 2 2 2 2 2 3 3 3 3 2 3 3 4 5
5 5 5 5 5 5 5 5 5 5 5 5 5 5 5 4 5 5 5 4 4 4 5 6 6 5 5 5 5 5 4 4 4 4 3 3 3 4 4 2 2 3 3 5 7 8 8 8 7 7 6 3 3 2 2 3 3 3 3 2 2 3 3 3 2 2 3 4 5
5 5 5 5 5 5 5 5 5 5 4 4 5 5 5 5 5 5 4 4 4 4 4 5 5 5 5 5 5 5 5 5 4 3 3 3 3 3 3 2 2 3 3 3 6 7 8 7 7 7 6 4 3 3 3 3 3 2 2 2 2 2 2 3 3 3 3 3 4
Wind_Direction
12 14 16 16 28 33 9 338 325 326 7 47 51 100 133 138 144 161 177 174 191 212 231 243 258 289 337 64 155 160 151 138 124 105 90 84 86 85 84 84 85 85 86 88 90 92 95 99 100 96 91 90 93 91 84 72 82 80 75 67 60 55 245 240 244 244 241 239 239
17 17 20 24 25 25 22 13 4 2 3 8 11 18 41 79 78 74 66 67 65 53 249 265 248 229 198 185 155 131 112 100 90 81 75 74 77 79 80 79 77 79 81 81 79 78 78 78 80 80 75 71 74 71 61 45 61 70 71 65 62 64 72 86 73 255 242 240 283
23 25 28 31 32 31 28 22 14 11 10 9 14 21 29 35 37 36 36 35 35 35 34 28 26 19 181 135 75 70 70 71 70 67 63 59 57 56 58 60 61 63 67 71 70 70 70 69 73 77 80 81 80 78 71 54 64 72 75 69 66 67 69 70 61 63 73 90 88
24 26 29 30 30 30 27 23 20 19 19 20 25 28 31 31 31 33 35 38 38 36 32 27 26 25 29 40 49 52 53 55 59 60 57 51 47 45 45 49 51 53 57 64 68 71 72 72 76 81 86 92 93 93 91 84 76 75 75 72 74 80 87 91 96 108 115 117 103
19 21 24 26 25 26 27 30 32 31 30 31 33 31 28 26 26 28 33 38 40 39 37 34 36 36 39 46 52 54 55 53 57 59 59 56 53 51 51 53 55 56 58 62 69 73 76 76 78 80 82 89 95 101 104 99 87 78 68 50 54 67 87 102 107 110 110 100 82
16 17 19 22 25 29 33 39 43 43 43 42 38 34 29 25 26 29 33 36 39 41 42 41 43 46 48 52 55 56 55 54 56 60 62 62 60 58 58 58 59 61 62 63 66 69 71 70 72 68 64 66 72 79 85 88 87 82 70 50 37 38 48 69 66 67 69 71 70
24 25 26 28 33 38 42 43 46 47 47 46 41 37 32 29 31 33 36 38 37 39 42 45 46 48 52 55 57 58 58 57 58 60 63 66 65 64 64 63 63 63 62 61 62 62 61 59 65 63 58 58 61 63 67 78 86 86 79 61 39 30 30 29 26 41 59 70 72
31 32 34 37 42 46 48 47 48 48 47 46 41 37 34 32 33 35 37 40 39 40 44 49 50 52 56 60 63 63 64 64 62 62 63 67 67 68 68 68 67 66 64 62 64 64 64 65 67 68 67 69 73 71 71 77 82 82 79 68 50 35 28 27 30 41 58 69 70
34 35 38 42 45 48 50 50 50 51 50 47 42 38 35 35 34 36 39 43 42 44 47 51 53 55 58 61 64 66 68 68 67 65 64 64 65 66 67 68 68 67 66 64 68 72 74 77 77 76 77 80 83 76 73 74 78 79 77 73 62 50 41 39 44 53 62 69 71
37 37 39 42 42 46 50 51 50 50 50 47 42 39 37 36 36 37 41 46 49 48 48 49 51 53 57 59 62 64 66 69 69 67 64 63 62 62 62 64 64 64 63 61 64 70 76 83 82 78 73 71 72 69 68 72 78 79 79 77 71 63 56 49 55 61 69 77 82
40 40 41 42 41 45 49 49 48 46 46 44 41 39 38 36 34 35 40 48 52 51 47 45 48 50 53 56 58 59 59 61 64 63 61 59 58 57 56 56 56 56 55 52 52 57 65 74 75 71 65 61 63 65 69 73 79 80 79 75 72 69 65 58 61 66 74 83 90
41 41 41 42 43 46 48 49 47 44 42 42 40 39 37 35 32 33 39 48 53 52 48 45 46 47 49 52 55 56 57 58 60 60 59 56 55 54 54 54 52 51 50 46 44 46 54 61 65 65 62 57 57 61 68 74 80 82 81 76 73 72 71 67 67 69 75 83 90
42 41 41 41 43 46 49 49 47 44 41 40 39 37 35 32 29 31 39 48 50 50 49 46 47 48 50 51 54 55 58 60 61 61 59 55 53 52 53 54 53 52 50 47 45 48 53 56 59 61 61 58 56 58 63 72 81 86 87 84 79 76 74 72 70 71 75 78 85
44 43 42 42 44 46 48 48 46 42 39 37 36 34 33 31 28 30 37 47 49 49 49 49 50 51 53 54 57 58 59 62 63 63 61 58 56 54 54 55 55 55 54 53 51 53 55 56 57 59 61 62 59 58 60 67 77 84 88 89 86 82 77 70 67 67 70 75 79
45 44 44 45 46 47 48 47 45 41 37 35 34 33 32 32 31 33 37 45 48 50 50 51 53 54 54 57 60 61 63 64 64 63 62 59 57 58 58 59 58 58 58 58 57 57 58 59 60 62 63 64 62 60 59 61 66 71 76 81 83 81 75 67 61 60 63 69 73
47 45 46 48 48 49 48 46 44 40 36 35 34 34 35 34 34 36 39 43 47 50 52 55 57 56 56 57 59 61 64 66 66 65 63 61 60 61 61 61 60 60 61 63 63 62 62 62 64 66 68 68 67 65 63 62 63 64 65 68 70 71 68 63 58 56 57 62 65
47 46 47 49 49 49 48 46 43 40 38 37 37 37 37 36 37 39 42 45 49 53 55 57 59 59 60 60 60 62 64 67 68 68 68 66 65 65 65 64 64 64 65 66 67 67 66 66 67 69 71 72 71 69 68 67 67 65 63 62 62 61 62 61 59 58 58 61 62
47 46 47 49 50 49 48 46 45 43 41 40 41 40 40 40 42 43 45 46 52 58 60 60 60 61 61 63 63 65 66 69 72 74 75 75 74 74 73 72 71 70 70 71 72 72 71 70 70 72 73 73 73 71 71 71 70 69 66 64 62 60 60 60 59 59 60 62 62
46 46 47 48 49 50 50 49 49 48 46 45 46 46 46 45 47 48 48 48 54 60 64 65 64 64 64 65 67 67 69 70 73 76 79 81 81 81 80 79 78 76 75 75 76 75 74 72 73 74 76 77 75 74 73 73 73 71 70 68 65 64 62 61 59 59 58 59 60
46 47 48 52 52 54 54 55 55 54 53 52 52 51 51 51 52 52 52 51 54 60 66 70 70 69 68 67 67 66 66 68 70 73 75 77 77 78 79 81 80 79 78 78 78 77 75 73 73 75 78 80 79 78 76 75 75 74 73 71 69 67 65 63 61 60 58 56 57
47 49 53 58 60 61 62 62 62 60 58 57 56 56 56 56 57 57 56 54 55 60 65 71 73 73 72 69 68 66 65 67 68 69 70 70 70 71 73 76 77 77 76 76 77 76 74 72 72 74 76 79 80 80 79 78 77 76 76 75 73 70 68 66 64 61 58 56 55
50 54 59 63 66 67 68 69 68 66 63 60 61 60 60 60 60 60 60 59 58 59 62 67 69 71 71 70 71 70 69 68 67 66 67 68 70 70 71 73 75 75 74 73 73 74 74 74 73 73 75 78 78 79 80 81 81 80 79 78 75 72 69 66 63 60 56 53 51
56 61 64 68 71 73 74 74 74 72 70 68 66 65 64 64 64 63 63 62 61 62 63 66 68 69 70 71 72 73 73 72 69 68 67 69 72 73 73 75 76 76 76 75 73 74 76 77 77 76 77 79 78 79 80 81 83 83 82 80 77 73 69 66 61 57 51 44 40
64 66 69 72 74 75 76 75 74 75 75 74 73 70 69 68 67 67 66 66 67 67 69 71 72 72 72 73 73 74 75 75 74 72 71 71 75 77 79 80 81 84 86 87 86 85 84 83 81 80 80 81 80 80 79 80 82 84 85 85 82 78 73 67 61 56 49 41 32
70 71 73 75 75 75 74 71 71 72 74 75 75 73 71 70 69 70 72 73 74 74 75 77 77 76 74 73 72 71 72 74 75 75 76 75 77 79 81 84 89 93 98 100 98 97 95 93 90 87 85 85 85 83 81 80 82 85 87 89 88 85 79 71 63 56 49 41 32
74 75 75 75 75 73 71 68 68 69 71 74 74 74 74 74 74 74 75 77 76 76 76 77 78 78 78 75 73 72 72 72 72 72 73 74 72 72 73 77 80 86 95 100 101 101 101 100 99 97 93 90 91 89 86 83 81 82 85 86 86 85 81 75 65 56 47 40 31
75 78 78 78 75 73 70 68 68 69 70 73 75 77 79 80 80 78 77 77 76 74 73 74 77 79 78 74 72 72 74 74 71 69 68 69 69 70 71 73 75 82 92 97 99 100 101 102 102 100 96 89 89 90 90 86 80 77 75 73 72 73 72 70 64 56 46 36 29
75 80 81 80 77 73 71 69 70 71 73 76 79 82 83 82 81 80 77 76 74 72 71 71 73 74 73 70 69 70 71 73 73 72 71 69 70 70 70 72 74 85 92 95 96 98 99 101 101 99 95 87 80 79 81 79 74 69 64 63 61 61 60 60 56 50 43 34 28
73 78 81 81 77 74 72 71 72 74 78 81 84 85 85 84 82 80 78 74 70 68 68 68 69 69 70 70 71 71 71 72 73 73 73 72 72 71 71 70 73 84 90 93 94 95 96 98 98 95 91 84 73 65 63 65 65 62 60 57 56 55 55 52 49 46 42 36 32
70 74 75 78 77 74 72 72 74 77 81 83 85 86 86 84 81 78 75 72 70 69 69 71 71 71 71 72 74 74 74 73 73 72 72 73 73 71 69 66 70 80 87 89 90 91 91 92 92 90 86 80 71 63 57 58 62 62 61 59 56 55 55 54 50 47 42 37 33
70 71 72 74 74 74 72 72 74 77 80 82 83 84 84 82 78 75 74 75 76 77 76 76 75 75 74 73 74 74 74 72 69 67 68 71 72 70 67 65 68 76 83 86 86 87 87 88 88 87 84 80 73 68 64 65 67 68 68 66 63 61 60 58 55 48 41 34 30
71 71 71 72 71 70 69 68 70 72 74 75 76 77 77 78 77 78 80 82 82 82 81 79 79 78 77 76 74 73 71 70 66 64 63 64 67 69 68 67 69 76 81 84 85 86 87 88 88 88 86 84 79 74 72 74 74 74 73 71 69 68 65 62 53 42 32 25 21
72 72 73 73 72 70 67 65 67 68 68 67 68 71 75 80 83 84 84 84 83 82 81 80 80 80 79 78 76 72 68 66 64 61 59 58 61 65 68 68 72 78 82 84 86 87 88 89 90 90 89 87 82 77 72 76 74 72 69 65 61 58 54 51 40 29 18 9 5
74 74 74 76 75 74 72 70 70 70 70 69 68 71 77 83 87 88 88 86 84 81 79 77 77 77 76 74 73 71 69 65 60 57 56 55 60 64 66 66 72 79 82 85 86 88 89 90 91 90 90 87 82 74 70 72 68 64 59 51 36 26 20 18 16 9 1 357 357
77 76 77 78 79 78 78 76 76 76 75 74 73 75 78 83 87 90 92 92 90 85 81 77 76 74 71 67 67 68 69 67 62 59 57 58 62 65 67 67 73 80 83 85 87 88 90 91 91 91 89 85 78 70 68 70 65 58 49 38 20 6 358 355 354 352 353 356 6
80 81 82 84 84 84 83 82 81 81 80 79 78 78 79 81 84 88 91 94 91 88 85 81 79 77 74 69 67 68 68 69 68 64 61 58 61 64 66 66 73 81 86 88 90 91 93 93 94 93 91 84 71 63 62 64 58 48 38 27 9 353 344 342 345 348 353 1 20
82 85 88 91 92 90 89 87 86 86 85 84 83 82 82 82 82 84 86 90 90 89 87 84 82 81 79 78 74 69 66 68 71 69 63 57 59 63 65 62 67 82 89 93 94 95 96 96 97 98 96 84 71 61 57 54 46 35 26 16 357 341 334 332 338 347 353 354 16
85 89 93 96 98 97 95 92 91 90 90 89 88 87 86 85 85 85 86 88 92 93 92 87 84 84 85 86 82 73 63 59 67 67 63 55 57 62 65 57 49 70 87 95 97 98 99 99 102 106 109 103 90 76 66 57 46 34 22 10 353 341 335 334 339 344 346 342 15
85 89 94 98 100 99 97 95 94 93 94 94 93 92 91 90 90 90 88 88 92 95 97 94 90 89 89 90 85 76 63 54 58 62 62 55 54 62 65 60 20 20 62 91 96 98 98 99 103 111 119 116 105 91 81 73 56 40 25 12 1 350 342 337 341 344 342 336 4
83 85 90 93 96 96 95 95 95 96 96 97 98 98 97 98 98 96 94 90 90 93 96 98 96 94 93 91 87 79 67 54 49 52 56 54 52 56 59 57 1 344 9 73 89 92 92 92 96 107 116 110 101 95 90 83 67 48 29 14 8 356 346 336 340 346 345 336 346
82 85 88 91 93 94 95 97 98 98 99 101 103 106 107 106 104 102 100 98 95 95 97 100 99 97 94 92 87 81 72 60 48 44 47 49 45 48 50 49 2 335 342 35 78 83 83 83 89 100 109 108 102 98 92 86 73 57 34 3 360 355 348 337 340 346 350 343 336